Погода в Тукумане

Аргентина     26°49′31″S   65°13′37″W
темп.,
°C
ветер,
м/с
пор.,
м/с
влажн.,
%
обл.,
%
осадки,
мм/ч
давл.,
гПа
погр.,
м
6 марта, сб
сб600:00+21сз226542 0.0 101437
03:00+20сз226936 0.0 101451
06:00+18сз22740 0.0 101249
09:00+22ссз12660 0.0 1014173
12:00+28св23470 0.0 10131006
15:00+31вюв22380 0.0 10101786
18:00+30вюв23450 0.0 10081281
21:00+23сз12640 0.0 101186
7 марта, вс
вс700:00+22сз22671 0.0 101340
03:00+21сз22720 0.0 101247
06:00+20сз22750 0.0 101247
09:00+23ссз12660 0.0 1014174
12:00+29ссв23470 0.0 1012992
15:00+32юв22400 0.0 10101532
18:00+31юв22430 0.0 10081025
21:00+24зсз12610 0.1 101033
8 марта, пн
пн800:00+23сз22640 0.0 101246
03:00+22сз22660 0.0 101152
06:00+21сз12690 0.0 101235
09:00+24зсз11650 0.0 1014109
12:00+32в11420 0.0 1014911
15:00+33ююв33350 0.0 10121881
18:00+32ююз22390 0.0 1010875
21:00+25зсз11559 0.1 101231
9 марта, вт
вт900:00+25зсз224835 0.0 101445
03:00+24зюз125667 0.0 101392
06:00+23зюз015795 0.0 101368
09:00+24ссз015952 0.0 1015155
12:00+30всв13360 0.0 10141211
15:00+32всв14320 0.0 10101882
18:00+31с13390 0.0 10081238
21:00+24сз22530 0.0 100943
10 марта, ср
ср1000:00+23сз225210 0.0 101144
03:00+21сз22564 0.0 101050
06:00+20сз12590 0.0 100937
09:00+23ссз13580 0.0 1011200
12:00+29с35380 0.0 10091134
15:00+32ссз24330 0.0 10061554
18:00+31ссз24430 0.0 1003852
21:00+25сз23580 0.0 100577